User: anonymous   Login
Location: Vancouver
(49.2500°N, 123.1330°W)
Time: 14:25:12
(UTC-07:00)
Language:

Iridium 35 - Orbit

View from above orbital plane
View from above orbital plane
View from above satellite
View from above satellite

Ground track
Ground track

The orbit data is extracted from the following two-line orbital elements,

1 24966U 97056B   18173.94491776 -.00000027 +00000-0 -15319-4 0  9995
2 24966 086.4230 163.7494 0002188 079.8749 280.2696 14.38603486085424
Epoch (UTC): 22 June 2018 22:40:40
Eccentricity: 0.0002188
inclination: 86.4230°
perigee height: 761 km
apogee height: 764 km
right ascension of ascending node: 163.7494°
argument of perigee: 79.8749°
revolutions per day: 14.38603486
mean anomaly at epoch: 280.2696°
orbit number at epoch: 8542

The dashed part of the orbit path shows where the satellite is in the earth's shadow,  

DLR